Regional Weather Roundup
Issued by NWS

Home | Current Version | Previous Version | Graphics & Text | Print | Product List | Glossary On
Versions: 1 2 3 4 5 6 7 8 9 10 11 12 13 14 15 16 17 18 19 20 21 22 23 24 25 26 27 28 29 30 31 32 33 34 35 36 37 38 39 40 41 42 43 44 45 46 47 48 49 50
000
ASUS43 KLOT 290712
RWRIL

ILLINOIS REGIONAL WEATHER ROUNDUP
NATIONAL WEATHER SERVICE CHICAGO/ROMEOVILLE IL
200 AM CDT WED JUL 29 2015

NOTE: "FAIR" INDICATES FEW OR NO CLOUDS BELOW 12,000 FEET WITH NO
SIGNIFICANT WEATHER AND/OR OBSTRUCTIONS TO VISIBILITY.

* THESE STATIONS ARE NOT UNDER NWS QUALITY CONTROL. THEY ALSO MAY NOT
  REPORT WEATHER SUCH AS PRECIPITATION OR FOG.

ILZ001-002-007-009-015-016-024-290800-
NORTHWEST ILLINOIS

CITY           SKY/WX    TMP DP  RH WIND       PRES   REMARKS
MOLINE         CLOUDY    77  74  90 NW5       29.92R
STERLING*      CLOUDY    73  72  94 CALM      29.92R
SAVANNA*       CLOUDY    76  73  93 CALM      29.93R FOG
$$

ILZ003-004-008-010-011-017-018-290800-
NORTH CENTRAL ILLINOIS

CITY           SKY/WX    TMP DP  RH WIND       PRES   REMARKS
ROCKFORD       CLOUDY    74  71  91 S3        29.93F
FREEPORT*      CLOUDY    72  71  95 W6        29.95R
ROCHELLE*      CLOUDY    72  71  95 CALM      29.94R
DE KALB*       CLOUDY    73  71  94 CALM      29.93F
PERU*          TSTM      75  73  92 S9        29.95R
$$

ILZ005-006-012>014-019>023-290800-
NORTHEAST ILLINOIS

CITY           SKY/WX    TMP DP  RH WIND       PRES   REMARKS
CHICAGO-OHARE  LGT RAIN  80  74  81 SW5       29.91F HX  85
CHICAGO-MIDWAY LGT RAIN  82  74  76 E8        29.91F HX  88
AURORA         CLOUDY    74  70  87 S6        29.94R
LANSING*       CLOUDY    77  72  83 S5        29.92F
JOLIET*        CLOUDY    75  74  96 S3        29.95R
WAUKEGAN       CLOUDY    74  72  93 CALM      29.91F
DUPAGE AIRPORT CLOUDY    75  71  87 CALM      29.92F
KANKAKEE*      MOCLDY    77  76  97 CALM      29.94S FOG
WHEELING       CLOUDY    80  73  79 SW3       29.92F HX  84
MORRIS*        LGT RAIN  74  72  95 CALM      29.93F
ROMEOVILLE*    TSTM      73  71  94 SW8       29.94R
NORTHERLY ISL    N/A     77  73  87 SW3         N/A
$$

LMZ740>746-290800-
SOUTHERN LAKE MICHIGAN

STATION/POSITION SKY/WX   TEMP    WIND        PRES    VSBY  WAVE
                          AIR SEA DIR/SP/G                  HT/PER
                          (F)     (DEG/KT/KT) (MB)    (MI)  (FT/S)
HARRISON CRIB              81     160/  7/  9   N/A
BURNHAM HARBOR             80     140/  3/  4   N/A
CALUMET HARBOR             81     170/  3/  5   N/A
BURNS HARBOR               80     170/  4/ 20 1013.9F
MICHIGAN CITY              80     140/  7/  8   N/A
MICHIGAN CITY 6N           76 75  190/  4/  6   N/A           0
ST. JOSEPH                 77 76  190/  8/ 10   N/A           1
$$

ILZ025>027-034>036-040-047-049-050-058-095>099-290800-
WEST-CENTRAL ILLINOIS

CITY           SKY/WX    TMP DP  RH WIND       PRES   REMARKS
QUINCY         MOCLDY    78  73  84 SW3       29.95F HX  81
GALESBURG*     CLOUDY    77  74  92 SE3       29.93R
MACOMB*        MOCLDY    77  77  98 SW3       29.96S FOG
JACKSONVILLE*  PTCLDY    81  77  88 S5        29.94S HX  88
PITTSFIELD*    PTCLDY    82  78  85 SW6       29.96S HX  91
$$

ILZ028>032-037-038-041>044-048-051>054-059>061-290800-
CENTRAL ILLINOIS

CITY           SKY/WX    TMP DP  RH WIND       PRES   REMARKS
PONTIAC        TSTM      74  73  94 NW18G31   29.99R
BLOOMINGTON    PTCLDY    76  72  87 S7        29.96S
DECATUR        PTCLDY    77  73  87 SW3       29.95S
PEORIA         TSTM      75  70  84 VRB7      29.95S
LACON*         CLOUDY    73  72  94 S7        29.95R
LINCOLN*       PTCLDY    77  73  88 S5        29.94R
SPRINGFIELD    PTCLDY    81  75  82 SW5       29.95R HX  87
TAYLORVILLE    MOCLDY    73  73 100 CALM      29.95R
$$

ILZ033-039-045-046-055>057-062-063-290800-
EAST-CENTRAL ILLINOIS

CITY           SKY/WX    TMP DP  RH WIND       PRES   REMARKS
CHAMPAIGN      PTCLDY    73  71  93 CALM      29.96S
DANVILLE*        N/A     71  71 100 CALM      29.92F FOG
RANTOUL*       PTCLDY    75  74  96 CALM      29.95S FOG
MATTOON        PTCLDY    76  72  87 S5        29.94F
PARIS*         PTCLDY    72  72  99 CALM      29.96F THUNDER
$$

ILZ079-100>102-290800-
SOUTHWEST ILLINOIS

CITY           SKY/WX    TMP DP  RH WIND       PRES   REMARKS
ALTON          PTCLDY    77  75  92 CALM      29.96R FOG
BELLEVILLE     PTCLDY    78  78 100 S2        29.92F
CAHOKIA*       CLEAR     81  76  84 CALM      29.93F HX  87
SPARTA*        CLEAR     80  77  92 S7        29.96F HX  85
$$

ILZ064>066-069>071-074>076-080>082-084>086-088>090-092>094-290800-
SOUTH-CENTRAL ILLINOIS

CITY           SKY/WX    TMP DP  RH WIND       PRES   REMARKS
CARBONDALE     PTCLDY    77  73  87 CALM      29.96F
CAIRO*         MOCLDY    78  73  84 S3        29.96F
EFFINGHAM*     PTCLDY    76  73  91 CALM      29.96S FOG
MARION         PTCLDY    77  73  88 S3        29.97F
MT. VERNON     PTCLDY    75  70  83 SW3       29.95F
CENTRALIA*     PTCLDY    77  73  87 S3        29.93F
SALEM*         PTCLDY    81  74  81 S6        29.93F HX  86
METROPOLIS*    MOCLDY    76  76 100 CALM      29.97F
$$

ILZ067-068-072-073-078-083-087-091-290800-
SOUTHEAST ILLINOIS

CITY           SKY/WX    TMP DP  RH WIND       PRES   REMARKS
LAWRENCEVILLE  MOCLDY    75  73  93 S3        29.95F
FLORA*         MOCLDY    74  73  95 SE3       29.94F
FAIRFIELD*     PTCLDY    75  74  99 S3        29.93F
HARRISBURG*    PTCLDY    75  74  97 CALM      29.97F
ROBINSON*      MOCLDY    75  74  96 CALM      29.95F FOG
CARMI*         PTCLDY    73  69  86 MISG      29.95F FOG
$$

ABBREVIATIONS USED IN REMARKS
   TC - TEMPERATURE IN CELSIUS
  WCI - WIND CHILL INDEX
   HX - HEAT INDEX
  VSB - VISIBILITY
$$




USA.gov is the U.S. government's official web portal to all federal, state and local government web resources and services.